Temperature
17 17 17 17 17 17 17 17 17 17 17 17 17 17 17 17 17 17 17 17 17 17 17 17 17 17 17 17 17 17 17 17 17 17 17 17 17 17 16 16 16 16 16
18 18 17 17 17 17 17 17 17 17 17 17 17 17 17 17 17 17 17 17 17 17 17 17 17 17 16 16 16 16 16 16 16 16 17 16 16 16 16 16 16 16 16
18 17 17 17 17 17 17 17 17 17 17 17 17 17 17 17 17 17 17 16 16 16 16 16 16 16 16 16 16 16 16 16 16 16 16 16 16 16 16 16 16 15 15
18 17 17 17 17 17 17 17 17 17 17 17 17 17 17 17 17 17 16 16 16 16 16 16 16 16 16 16 16 16 16 16 16 16 16 16 16 15 15 15 15 15 15
18 17 17 17 17 17 17 17 17 17 17 17 17 17 17 16 16 16 16 16 16 16 16 16 16 16 16 16 15 15 15 15 15 15 15 15 15 15 15 15 15 15 15
18 17 17 17 17 17 17 17 17 17 17 17 17 17 16 16 16 16 16 16 16 16 16 15 15 15 15 15 15 15 15 15 15 15 15 15 15 14 14 14 14 14 14
18 17 17 17 17 17 17 17 17 17 16 16 16 16 16 16 16 16 16 16 15 15 15 15 15 15 15 15 15 15 14 14 14 14 14 14 14 14 14 14 13 13 13
18 17 17 17 17 17 17 17 16 16 16 16 16 16 16 16 16 15 15 15 15 15 15 15 15 15 14 14 14 14 14 14 14 14 14 14 13 13 13 13 13 13 13
17 17 17 17 17 17 16 16 16 16 16 16 16 16 15 15 15 15 15 15 15 15 14 14 14 14 14 14 14 14 14 14 13 13 13 13 13 13 12 12 12 12 12
17 17 17 17 17 16 16 16 16 16 16 15 15 15 15 15 15 15 15 15 14 14 14 14 14 14 13 13 13 13 13 13 13 13 12 12 12 12 12 11 11 11 11
17 16 16 16 16 16 16 16 15 15 15 15 15 15 14 14 14 14 14 14 14 14 14 13 13 13 13 13 13 12 12 12 12 12 12 12 12 11 11 11 11 10 10
16 16 16 16 15 15 15 15 15 15 15 14 14 14 14 14 14 14 14 13 13 13 13 13 13 12 12 12 12 12 12 11 11 11 11 11 11 11 10 10 10 10 10
16 16 15 15 15 15 15 15 14 14 14 14 14 14 13 13 13 13 13 13 13 12 12 12 12 12 12 11 11 11 11 11 11 10 10 10 10 10 10 10 10 9 9
15 15 15 15 14 14 14 14 14 14 14 13 13 13 13 12 12 12 12 12 12 12 11 11 11 11 11 11 11 11 10 10 10 10 10 9 9 9 9 9 9 9 9
14 14 14 14 14 14 13 13 13 13 13 13 12 12 12 12 11 11 11 11 11 11 11 11 11 10 10 10 10 10 10 10 9 9 9 9 9 9 9 8 8 8 8
14 14 13 13 13 13 13 12 12 12 12 12 12 11 11 11 11 11 10 10 10 10 10 10 10 10 9 9 9 9 9 9 9 8 8 8 8 8 8 8 8 7 7
13 13 13 12 12 12 12 12 12 11 11 11 11 11 10 10 10 10 10 10 10 10 10 9 9 9 9 8 8 8 8 8 8 8 8 7 7 7 7 7 7 7 7
12 12 12 12 12 12 12 11 11 11 11 10 10 10 10 10 10 10 9 9 9 9 9 8 8 8 8 8 8 7 7 7 7 7 7 7 7 6 6 6 6 6 6
12 12 11 11 11 11 11 11 11 10 10 10 10 9 9 9 9 9 9 9 8 8 8 8 7 7 7 7 7 7 7 7 6 6 6 6 6 6 6 6 5 5 5
11 11 11 11 11 11 11 10 10 10 9 9 9 9 9 9 9 8 8 8 7 7 7 7 7 7 6 6 6 6 6 6 6 6 6 5 5 5 5 5 5 5 5
11 11 11 10 10 10 10 10 9 9 9 8 8 8 8 8 7 7 7 7 7 6 6 6 6 6 6 6 5 5 5 5 5 5 5 5 4 4 4 4 4 4 4
10 10 10 9 9 9 9 9 8 8 8 7 7 7 7 7 6 6 6 6 5 5 5 5 5 5 5 5 4 4 4 4 4 4 4 4 4 4 4 4 4 4 4
9 9 9 9 8 8 8 8 8 7 7 7 6 6 6 5 5 5 5 5 5 4 4 4 4 4 4 4 4 4 4 4 4 3 3 3 3 3 3 3 3 3 3
9 8 8 8 8 7 7 7 7 6 6 6 5 5 5 5 4 4 4 4 4 4 4 4 4 4 4 4 3 3 3 3 3 3 3 3 3 3 3 3 3 3 3
8 8 7 7 7 7 6 6 6 5 5 5 4 4 4 4 3 3 3 3 3 3 3 3 3 3 3 3 3 3 3 3 3 3 3 3 3 3 3 3 3 3 3
7 7 7 6 6 6 5 5 5 5 4 4 4 3 3 3 3 3 3 3 2 2 2 3 3 2 2 2 2 2 3 3 3 3 3 3 3 3 3 3 3 3 3
Wind_Speed
8 8 8 9 8 8 8 9 8 8 8 9 10 9 9 9 8 8 7 7 7 6 5 6 5 4 3 2 2 2 2 3 4 4 3 2 2 3 4 9 12 12 14
8 8 8 8 8 8 8 7 7 8 8 9 9 9 9 9 8 9 9 8 8 8 7 6 6 4 4 3 3 3 2 3 4 4 3 2 3 4 3 4 7 10 12
6 7 8 8 8 8 8 7 7 8 8 8 9 9 8 8 8 8 8 7 8 8 7 7 7 5 5 4 4 3 3 2 3 3 3 2 2 2 2 4 4 5 9
6 7 7 8 8 8 7 6 7 7 8 8 7 8 7 7 7 7 7 6 6 6 6 7 6 7 7 6 5 4 3 2 2 2 3 3 3 3 2 3 4 4 5
7 6 6 6 6 6 6 6 6 6 7 6 6 5 5 5 5 6 7 6 5 5 4 5 6 7 8 7 5 5 4 3 3 3 3 3 3 2 3 3 4 4 5
7 7 6 6 6 6 6 6 6 5 5 6 5 5 4 4 5 7 7 5 5 5 5 4 4 5 6 7 7 7 6 5 5 4 4 5 5 4 4 4 4 3 4
7 7 6 6 6 5 6 6 6 5 5 5 5 5 4 3 4 5 7 5 4 4 4 4 3 3 4 4 5 6 7 8 8 6 6 7 6 6 4 5 5 5 6
7 6 6 7 6 5 5 6 5 5 5 5 5 5 4 2 3 4 5 4 3 2 3 3 3 2 2 3 3 3 3 4 6 6 7 8 7 6 6 6 6 5 5
7 6 6 7 7 6 6 5 5 5 4 4 4 5 4 2 2 3 4 3 2 1 1 1 2 1 1 2 2 2 4 5 5 6 7 8 10 10 6 3 3 3 5
6 6 5 5 6 6 6 5 4 5 4 5 5 4 4 3 3 4 5 3 2 1 1 1 0 1 1 0 1 2 4 5 4 4 4 6 6 7 7 6 5 5 4
6 6 6 5 6 6 6 5 5 6 5 5 6 5 4 5 5 5 5 3 2 1 1 1 1 2 3 2 1 2 4 4 3 3 3 4 3 3 3 3 4 5 5
7 8 7 6 5 5 6 6 6 7 7 6 6 6 5 5 6 5 6 4 3 2 0 1 1 3 3 4 2 2 3 2 1 2 3 3 3 4 4 4 5 6 7
9 8 7 7 7 7 7 7 6 6 6 6 6 5 4 4 4 7 6 5 4 2 1 2 3 4 3 3 3 4 2 1 1 2 3 4 4 4 4 4 5 5 6
10 8 7 8 8 8 6 6 6 5 6 6 5 5 4 3 3 4 4 4 4 4 3 4 5 5 4 3 3 3 2 1 1 3 4 4 4 3 4 3 4 4 4
10 9 9 9 9 9 9 7 7 5 4 6 5 4 4 3 2 2 3 2 2 2 3 3 4 4 5 4 3 3 2 2 2 2 3 4 4 4 4 4 3 3 4
9 8 7 7 7 7 8 8 12 10 11 11 8 6 4 4 4 6 6 6 6 5 5 4 3 3 3 3 3 3 3 3 3 3 3 3 4 5 5 5 4 4 5
9 8 6 6 6 6 6 7 7 8 11 11 10 9 8 7 8 8 8 8 7 7 5 3 3 3 3 3 3 2 3 3 3 3 3 4 4 4 5 5 5 5 6
9 9 8 6 6 6 6 6 6 6 5 5 7 9 9 9 10 9 8 7 6 5 3 3 3 3 3 3 3 3 3 4 3 3 3 4 4 4 5 5 6 6 7
9 7 7 6 6 6 6 7 6 7 6 5 5 6 8 8 9 9 8 5 4 4 4 3 3 3 3 3 3 3 3 3 4 4 4 4 5 5 5 6 6 8 7
9 11 10 7 7 7 7 7 7 6 6 6 5 4 4 6 6 6 5 4 4 4 4 4 4 4 3 3 3 3 3 4 4 4 4 5 5 5 6 7 7 7 7
6 8 11 9 7 7 7 7 6 6 6 6 5 5 7 5 5 5 5 5 4 4 4 4 4 4 5 5 4 4 4 4 4 4 5 5 6 6 6 7 7 7 7
6 7 7 7 7 7 7 7 7 7 7 6 5 6 9 6 5 5 5 5 4 4 4 3 4 3 4 4 4 5 5 5 6 6 6 7 7 7 7 7 8 8 8
7 8 8 7 7 9 8 7 6 6 6 6 5 5 6 5 5 5 5 5 4 4 5 5 4 5 6 6 6 5 5 6 7 7 8 8 8 8 7 8 9 10 9
8 8 8 7 7 7 7 7 6 6 6 6 6 6 5 5 5 5 5 5 5 5 6 6 6 7 8 8 8 8 8 10 11 9 9 8 9 8 8 8 9 10 9
8 8 8 7 7 7 7 7 7 6 6 6 6 5 5 5 5 5 5 5 6 6 8 8 7 8 10 11 11 12 14 15 14 12 10 8 9 9 9 9 9 9 9
8 8 7 7 7 6 6 6 6 6 5 5 5 4 4 5 5 5 5 5 6 6 7 8 9 11 12 12 13 16 17 17 17 16 11 7 8 8 8 7 9 8 9
Wind_Direction
184 185 182 184 185 181 183 186 186 188 186 183 184 185 188 189 186 185 193 191 194 203 203 197 210 204 198 198 177 168 175 166 199 259 259 263 210 217 210 220 229 230 235
184 182 182 181 177 179 184 184 181 184 187 185 184 187 192 191 187 188 198 198 198 205 210 206 217 209 204 207 192 189 192 186 184 234 268 262 234 228 219 222 231 234 238
174 177 180 181 178 182 185 184 184 183 182 183 182 187 189 186 185 191 195 199 202 207 208 207 215 203 213 215 206 205 210 202 181 201 247 259 264 259 245 253 249 248 249
171 170 178 181 180 183 183 181 182 180 179 178 181 183 182 181 185 192 192 198 208 213 210 207 207 202 211 212 213 214 211 207 198 206 242 257 261 264 229 249 269 261 261
162 167 173 170 168 170 175 175 165 164 169 161 160 164 169 175 193 197 194 194 201 213 213 209 209 209 209 209 211 210 202 206 216 228 246 257 259 257 245 238 249 266 268
159 164 163 158 158 161 164 158 148 147 146 144 151 156 166 189 199 194 188 183 192 203 214 220 218 217 220 216 214 206 197 206 221 228 239 242 251 244 243 241 244 257 272
160 161 159 154 151 152 154 144 146 149 148 149 155 155 169 182 176 178 185 181 191 199 210 220 231 230 218 225 230 230 228 227 217 214 231 241 244 238 234 244 238 236 245
155 154 154 153 152 151 144 148 153 148 151 159 158 162 160 167 167 171 173 167 166 184 198 199 204 236 243 216 221 233 248 253 243 231 234 245 247 242 231 238 244 250 259
150 155 159 159 156 154 154 158 155 144 142 146 141 139 137 121 132 160 153 133 138 167 184 167 172 186 254 206 202 250 276 282 277 261 256 263 265 264 249 238 246 252 271
153 152 147 148 146 146 147 145 139 136 141 133 119 115 120 107 87 117 140 127 131 136 62 33 104 159 309 330 200 236 269 280 301 313 303 298 287 281 264 236 235 244 258
132 121 117 125 134 137 134 128 121 119 117 113 105 88 80 77 77 86 100 108 127 118 75 2 341 348 347 328 264 228 249 275 292 295 303 310 314 306 295 270 245 238 246
109 105 102 100 109 112 109 106 105 111 109 105 101 87 69 63 67 73 80 85 93 111 109 296 306 343 357 357 354 306 297 313 321 329 322 312 309 304 297 289 281 264 252
99 95 91 88 87 93 103 104 97 98 105 104 103 98 80 57 53 61 65 66 63 70 22 353 355 359 7 5 3 352 351 357 347 318 299 291 284 284 292 301 301 294 284
99 95 89 87 79 72 76 84 94 97 106 108 110 109 93 63 43 38 43 49 49 50 35 24 18 13 13 356 352 358 0 327 288 283 285 285 294 301 297 292 291 300 300
90 89 88 87 88 79 69 60 73 66 94 115 117 118 109 85 30 59 72 56 49 46 44 42 39 31 24 16 8 356 352 356 326 308 303 305 306 306 300 300 288 290 286
88 86 89 95 95 96 93 74 55 66 71 78 93 105 88 94 92 73 67 67 65 69 70 56 37 27 20 4 351 345 343 329 314 305 302 301 304 304 302 302 295 287 285
82 84 86 91 98 100 100 100 87 58 57 61 67 73 81 80 73 67 63 62 58 65 61 42 24 5 351 344 339 328 319 312 311 309 306 307 307 305 306 305 303 298 292
75 75 80 81 84 91 94 94 96 95 76 47 44 57 68 69 64 60 60 59 46 43 41 23 1 348 342 336 332 324 317 322 326 319 314 310 307 307 307 304 301 297 298
70 69 72 73 74 79 84 87 87 85 82 73 59 46 54 62 54 47 49 55 42 22 15 8 354 342 335 336 333 328 325 326 327 324 319 315 312 307 302 298 296 293 293
66 69 74 75 71 73 78 82 83 83 82 77 69 52 43 53 46 34 35 37 36 21 9 3 357 356 355 353 350 348 346 339 336 331 324 319 315 309 303 302 300 298 294
65 67 68 73 70 73 77 81 84 86 82 74 63 60 70 66 59 47 39 36 32 20 10 7 6 4 1 351 346 344 340 329 326 322 319 315 313 309 303 299 297 294 294
63 66 70 75 76 75 76 78 80 80 79 76 62 54 57 59 58 50 37 28 28 25 17 14 10 4 356 351 344 338 335 332 329 324 317 312 308 304 301 298 298 296 294
68 72 73 72 75 75 73 71 75 76 75 72 66 60 57 55 48 39 28 17 12 9 11 13 5 356 2 5 0 349 338 329 322 315 312 309 307 304 302 300 299 301 299
71 75 76 73 72 73 74 70 69 71 70 67 63 62 59 52 44 35 24 12 7 8 10 12 10 5 5 5 359 354 344 333 325 314 306 302 301 299 299 300 298 297 297
70 72 73 73 74 75 74 71 69 68 68 68 64 59 52 44 35 26 17 17 13 8 8 11 15 12 3 355 351 347 341 336 331 324 312 299 295 296 298 299 299 300 300
69 72 73 74 73 72 73 73 70 69 67 67 66 60 49 39 29 21 16 15 12 6 6 11 11 7 0 353 346 343 341 337 334 331 321 302 296 297 302 300 302 305 306
Height
1484 1486 1488 1491 1494 1498 1501 1504 1508 1511 1515 1518 1521 1524 1527 1529 1531 1533 1535 1538 1539 1541 1543 1544 1545 1547 1548 1549 1550 1551 1551 1551 1551 1551 1552 1552 1552 1553 1553 1553 1553 1552 1552
1482 1484 1486 1489 1492 1495 1498 1502 1505 1509 1512 1515 1518 1521 1523 1525 1528 1530 1532 1534 1536 1538 1539 1541 1542 1543 1544 1546 1547 1547 1548 1548 1548 1548 1548 1548 1549 1549 1549 1549 1548 1548 1548
1481 1483 1485 1487 1490 1493 1496 1499 1503 1506 1509 1512 1515 1517 1520 1522 1524 1526 1528 1531 1532 1534 1536 1537 1539 1540 1541 1542 1543 1543 1544 1544 1544 1544 1544 1545 1545 1545 1544 1544 1544 1543 1543
1481 1482 1483 1485 1488 1491 1495 1498 1500 1503 1506 1509 1512 1514 1517 1519 1521 1523 1525 1527 1529 1531 1532 1534 1535 1536 1537 1538 1539 1539 1540 1540 1540 1540 1540 1540 1540 1540 1540 1539 1538 1538 1538
1480 1481 1483 1485 1488 1491 1494 1496 1498 1501 1503 1506 1509 1511 1514 1516 1518 1519 1521 1523 1525 1527 1528 1530 1531 1532 1533 1534 1535 1535 1536 1536 1536 1536 1535 1535 1535 1535 1534 1534 1533 1532 1531
1479 1481 1483 1485 1488 1490 1492 1494 1497 1499 1501 1504 1506 1509 1511 1513 1514 1516 1517 1519 1521 1523 1525 1526 1527 1528 1529 1530 1530 1531 1531 1531 1531 1531 1530 1530 1529 1529 1529 1529 1527 1526 1524
1479 1481 1483 1485 1487 1489 1491 1493 1495 1497 1500 1502 1504 1507 1508 1510 1512 1513 1514 1515 1518 1520 1522 1523 1524 1524 1525 1525 1526 1526 1526 1526 1527 1526 1525 1525 1524 1524 1523 1523 1522 1520 1518
1479 1481 1483 1485 1486 1488 1490 1492 1494 1496 1498 1500 1502 1505 1507 1508 1510 1512 1513 1514 1516 1517 1518 1519 1520 1520 1521 1521 1522 1521 1521 1521 1521 1521 1520 1519 1519 1518 1517 1516 1515 1513 1512
1479 1480 1482 1484 1486 1488 1490 1492 1494 1496 1497 1499 1501 1503 1505 1507 1508 1510 1512 1513 1513 1514 1515 1516 1516 1517 1517 1517 1517 1516 1516 1516 1516 1515 1514 1513 1512 1512 1511 1510 1508 1507 1504
1478 1480 1482 1484 1486 1488 1489 1492 1493 1495 1497 1498 1500 1502 1504 1505 1506 1508 1509 1510 1511 1511 1512 1512 1513 1513 1513 1513 1513 1512 1511 1511 1510 1509 1508 1508 1506 1505 1505 1503 1502 1501 1498
1478 1480 1482 1484 1485 1487 1489 1491 1493 1495 1497 1497 1499 1501 1502 1503 1504 1505 1506 1507 1508 1509 1509 1509 1509 1510 1509 1509 1509 1508 1507 1507 1506 1504 1503 1502 1501 1500 1499 1498 1497 1495 1493
1478 1480 1481 1483 1485 1487 1489 1491 1493 1494 1496 1497 1498 1499 1500 1501 1503 1503 1504 1505 1506 1506 1506 1506 1506 1506 1506 1506 1505 1504 1504 1503 1502 1500 1499 1498 1497 1496 1494 1493 1492 1490 1488
1478 1480 1482 1484 1486 1487 1489 1490 1492 1494 1495 1496 1498 1498 1500 1501 1502 1502 1503 1503 1504 1504 1504 1504 1504 1503 1503 1503 1502 1502 1501 1499 1498 1497 1496 1494 1493 1492 1490 1488 1487 1485 1483
1478 1480 1483 1484 1486 1488 1490 1491 1492 1494 1495 1497 1498 1499 1500 1501 1501 1501 1502 1502 1502 1502 1502 1502 1502 1501 1501 1501 1500 1499 1498 1497 1496 1494 1493 1491 1490 1488 1486 1484 1482 1479 1478
1480 1482 1484 1486 1488 1489 1490 1492 1493 1495 1496 1497 1498 1499 1500 1500 1501 1501 1501 1501 1501 1501 1501 1500 1500 1500 1499 1499 1498 1497 1496 1495 1493 1492 1490 1488 1486 1484 1482 1480 1477 1475 1473
1482 1485 1486 1488 1490 1491 1492 1494 1495 1497 1498 1499 1500 1500 1501 1502 1502 1502 1502 1502 1502 1501 1501 1499 1499 1499 1498 1497 1496 1495 1493 1492 1490 1488 1486 1484 1482 1479 1477 1475 1473 1470 1468
1486 1488 1489 1490 1492 1493 1494 1495 1497 1499 1500 1501 1501 1502 1502 1502 1502 1502 1502 1502 1501 1501 1500 1499 1498 1497 1496 1495 1494 1492 1491 1489 1487 1485 1483 1480 1478 1475 1473 1470 1468 1465 1462
1490 1492 1493 1493 1494 1495 1496 1498 1499 1500 1501 1503 1503 1504 1504 1504 1503 1503 1503 1502 1501 1500 1499 1498 1497 1496 1495 1493 1492 1490 1488 1486 1484 1482 1479 1477 1474 1471 1468 1465 1463 1460 1457
1494 1495 1496 1497 1498 1498 1499 1500 1501 1503 1503 1504 1505 1505 1505 1505 1504 1503 1502 1501 1500 1499 1498 1497 1496 1494 1493 1491 1489 1487 1485 1483 1480 1477 1475 1472 1469 1466 1463 1461 1458 1455 1452
1498 1499 1499 1500 1500 1501 1502 1503 1504 1504 1505 1505 1506 1506 1506 1505 1504 1503 1502 1501 1500 1499 1497 1496 1495 1493 1491 1489 1486 1484 1481 1479 1476 1473 1470 1467 1464 1462 1458 1455 1452 1449 1446
1501 1502 1502 1503 1503 1503 1504 1505 1506 1506 1506 1507 1507 1507 1506 1505 1504 1503 1502 1500 1499 1497 1496 1494 1492 1490 1488 1486 1483 1480 1478 1475 1472 1468 1465 1462 1459 1456 1453 1450 1447 1444 1441
1504 1504 1505 1505 1506 1506 1507 1507 1507 1507 1508 1508 1507 1507 1506 1505 1504 1502 1501 1499 1498 1496 1494 1492 1490 1488 1485 1482 1480 1477 1474 1471 1467 1464 1460 1457 1454 1451 1447 1444 1441 1438 1435
1507 1507 1507 1508 1508 1508 1508 1509 1509 1509 1509 1508 1508 1507 1506 1504 1503 1502 1500 1498 1497 1495 1492 1490 1488 1485 1482 1479 1476 1473 1470 1466 1463 1459 1455 1452 1449 1445 1442 1439 1436 1433 1430
1509 1509 1510 1510 1510 1509 1509 1509 1509 1509 1509 1508 1508 1506 1505 1504 1502 1501 1499 1497 1495 1493 1490 1488 1485 1482 1480 1477 1473 1470 1466 1463 1459 1455 1451 1447 1444 1441 1437 1434 1431 1428 1425
1511 1511 1511 1511 1511 1510 1510 1510 1510 1510 1509 1508 1507 1506 1505 1503 1501 1499 1497 1495 1493 1491 1488 1485 1483 1480 1477 1474 1470 1467 1463 1459 1455 1451 1447 1443 1440 1437 1434 1430 1427 1424 1422
1512 1512 1512 1512 1512 1511 1511 1511 1510 1510 1509 1508 1506 1505 1504 1502 1500 1498 1496 1494 1491 1489 1486 1483 1481 1477 1474 1471 1468 1464 1460 1456 1452 1448 1444 1440 1437 1434 1431 1428 1425 1422 1419